Wind_Speed
49 49 50 50 50 50 51 52 53 53 54 55 56 56 56 56 55 55 55 56 57 57 57 57 57 57 57 55 54 53 53 53 52 51 52 54 54 54 59 62 63 66 68 68 68 69 68 68 68 70 72 74 76 77 78 77 78 77 75 73 70 68 69 71 72 72 70 67 68 67 59 58 58 59 61 58 58 60 62 60 60 61 55 49 48 48 48 49
53 53 53 53 53 54 54 54 54 54 55 54 55 55 55 56 56 56 56 57 58 58 59 59 59 59 58 57 55 55 54 53 52 51 53 54 52 53 56 58 60 63 65 67 68 70 69 68 68 68 69 70 72 75 76 77 78 78 76 74 71 71 72 74 74 73 72 69 71 65 53 55 58 62 63 59 61 64 64 62 62 61 53 49 51 51 48 49
57 56 56 57 57 57 57 58 58 58 58 58 57 57 57 56 56 56 56 58 58 59 59 60 61 61 60 59 57 57 56 54 53 52 53 54 53 53 54 55 57 59 62 64 67 69 69 69 68 67 67 67 68 71 73 74 75 76 76 75 72 73 75 75 75 75 74 69 69 62 51 58 62 65 66 61 64 65 64 64 62 59 52 51 54 51 48 50
60 60 60 60 60 61 61 61 62 61 62 62 61 61 60 59 58 57 56 57 58 58 58 60 61 62 62 60 59 59 58 57 55 53 53 54 53 52 53 53 54 56 59 62 64 67 69 70 69 68 67 66 66 67 69 69 70 73 75 73 73 76 76 76 77 76 73 66 68 64 57 62 65 68 68 60 63 66 65 63 61 55 48 50 52 49 49 49
64 64 64 64 64 64 64 64 65 65 65 65 65 64 64 63 62 61 59 58 58 58 58 59 60 62 62 61 61 61 60 59 55 53 55 55 52 52 53 53 53 54 57 59 61 64 67 69 70 70 69 67 66 65 65 65 66 69 71 71 73 76 75 77 78 75 70 68 70 67 62 64 67 70 66 60 64 67 66 64 62 54 46 49 49 47 49 48
67 68 68 68 68 68 68 68 68 68 68 68 67 67 67 66 65 65 63 61 60 60 60 60 61 61 61 61 62 62 62 60 55 54 57 56 54 53 53 54 53 54 55 56 58 62 64 67 68 69 69 69 68 65 64 63 62 64 66 68 70 72 74 76 77 71 69 71 71 69 67 67 69 70 64 63 66 67 67 64 63 56 48 51 51 49 49 46
69 70 70 71 71 71 71 71 71 70 70 70 70 69 69 68 68 67 67 66 64 62 62 63 63 62 61 60 61 62 62 61 57 57 59 57 55 54 54 54 54 54 53 54 56 59 62 64 66 68 70 70 69 66 65 64 61 61 62 63 64 68 70 72 72 68 68 72 72 70 69 68 70 68 66 68 67 67 66 62 64 59 49 52 55 52 50 47
71 72 72 73 73 74 74 73 73 73 72 72 72 72 71 71 70 69 69 69 68 67 65 65 66 64 63 61 61 60 59 61 61 60 60 58 56 55 55 54 53 53 53 53 54 57 59 61 63 66 68 70 70 68 67 65 61 60 60 60 60 63 64 65 67 64 65 70 70 69 69 69 70 68 68 69 67 67 67 63 65 59 49 53 56 51 49 47
74 74 74 74 75 75 75 75 75 75 75 74 74 74 74 73 73 72 71 71 71 70 69 69 69 67 66 63 62 59 58 63 62 59 60 60 58 57 56 54 53 54 53 54 54 55 56 58 61 64 66 69 70 69 68 66 62 59 59 59 58 59 59 58 59 59 61 66 67 66 67 68 69 68 68 67 66 68 67 63 64 58 51 53 55 50 49 46
75 76 77 77 77 77 77 77 77 77 77 76 76 76 76 76 76 75 74 73 73 72 72 72 71 71 69 66 63 60 60 63 59 57 61 62 60 58 56 55 54 54 54 54 54 54 54 56 59 62 65 67 68 69 68 65 62 61 61 60 57 55 54 52 52 53 56 60 61 61 63 65 66 66 66 65 66 67 65 62 62 57 51 52 52 50 49 41
75 77 78 79 79 79 79 80 79 79 79 79 79 79 78 78 78 78 77 77 75 75 74 74 74 73 72 69 64 61 64 64 57 55 60 62 62 60 57 56 56 56 55 55 54 54 54 55 58 60 62 64 67 67 67 65 63 63 62 59 57 54 52 50 48 49 51 53 55 56 58 60 61 62 62 64 65 64 62 60 59 53 48 50 49 48 45 37
75 77 79 80 81 82 82 83 83 83 82 82 82 82 82 81 81 80 79 79 79 77 76 76 76 75 74 71 64 65 68 64 57 55 59 62 63 63 60 57 57 57 57 55 55 54 54 55 56 58 59 62 64 64 66 64 64 65 61 59 59 55 52 49 46 47 48 49 50 52 53 54 55 56 58 62 61 59 59 58 55 47 43 47 46 45 41 35
76 78 80 82 84 85 86 87 87 87 87 87 86 85 85 84 84 83 83 82 81 81 79 78 78 77 75 71 66 70 71 66 62 61 63 62 61 63 62 60 59 58 57 56 56 55 55 55 55 55 57 59 60 61 63 63 63 64 60 60 60 56 51 48 47 46 45 46 47 48 47 47 50 53 56 57 54 53 55 54 50 44 41 43 43 41 36 31
78 80 81 84 86 88 90 92 92 93 93 92 91 90 88 88 87 86 86 85 84 83 82 81 80 79 76 71 70 75 74 69 67 66 65 62 60 60 61 62 61 59 58 58 58 57 56 55 54 54 54 55 56 59 61 61 62 63 61 61 59 55 50 48 48 45 43 44 45 45 43 45 49 52 51 50 48 48 48 47 44 39 38 39 39 37 31 27
83 85 86 87 89 91 94 96 97 98 98 97 96 95 93 92 90 89 88 88 87 86 85 84 82 81 76 72 74 78 76 71 68 68 68 65 62 60 60 62 62 61 60 59 59 58 56 55 53 52 52 52 53 57 58 59 61 63 61 60 59 56 51 50 49 45 44 44 44 42 41 45 49 46 44 43 44 45 43 40 34 29 30 32 32 32 29 26
87 89 90 90 91 93 95 97 99 101 101 102 101 100 99 97 95 94 91 90 90 89 88 86 84 83 78 74 78 80 76 71 71 73 72 67 65 63 62 61 61 62 62 61 60 59 57 55 53 51 50 50 52 55 56 56 59 60 60 60 59 57 52 52 51 47 45 44 42 39 41 47 44 39 39 38 39 40 37 34 29 23 22 21 22 24 25 23
86 87 88 89 90 91 93 96 98 100 101 102 102 102 102 101 100 98 96 94 92 91 91 89 87 85 80 77 80 80 77 75 76 77 74 69 68 66 65 62 61 62 62 63 61 60 58 55 53 51 50 50 52 53 52 53 56 58 61 60 60 58 54 55 54 48 45 43 41 40 44 44 36 32 33 32 34 34 30 30 27 20 15 14 17 21 21 22
82 82 83 84 85 87 89 91 94 96 98 99 100 100 100 101 101 100 100 98 95 93 91 91 90 86 83 82 82 82 81 79 78 77 74 71 70 69 67 64 63 62 62 63 62 60 58 56 53 51 50 49 49 49 46 50 55 57 60 60 60 59 56 58 55 47 46 46 43 42 44 37 29 29 30 29 32 30 26 28 27 23 19 23 28 30 27 28
77 77 77 78 79 81 83 84 87 89 91 93 95 95 96 97 99 99 100 100 98 95 92 93 93 90 87 87 86 85 84 81 77 76 73 72 71 71 69 67 65 64 63 62 62 61 59 56 53 51 49 46 46 46 44 49 55 57 59 59 60 59 58 60 55 48 49 50 44 43 43 34 28 29 29 29 31 29 27 29 29 27 26 32 37 38 34 33
71 72 72 73 74 76 77 78 80 81 83 85 87 89 90 93 96 96 97 96 96 96 94 94 94 93 92 91 90 89 86 82 77 76 75 75 75 73 72 70 68 66 63 61 61 61 60 57 52 50 48 46 46 46 46 51 55 56 57 58 59 60 59 60 56 51 51 50 44 44 44 34 28 29 29 30 31 31 31 30 31 32 31 36 39 38 35 35
68 68 69 69 70 71 72 73 74 76 77 78 80 82 84 89 91 91 92 92 93 94 95 94 94 95 96 94 93 92 89 84 80 79 80 79 78 76 74 72 70 67 64 62 62 62 61 56 51 50 50 49 48 48 49 52 54 54 55 56 57 59 60 59 59 55 51 50 46 46 44 34 30 30 28 29 31 31 31 31 31 32 35 39 40 38 36 36
65 65 65 65 65 66 67 68 69 71 72 73 74 76 79 83 84 83 85 87 89 91 93 94 94 95 98 97 95 94 90 85 83 82 82 80 79 77 73 72 70 67 66 65 62 61 59 55 53 53 53 52 51 51 51 52 54 54 55 55 55 58 58 59 61 54 49 50 49 47 45 37 35 32 28 28 29 29 30 33 32 30 36 39 40 39 37 38
60 60 59 59 59 59 60 61 62 64 65 66 68 70 73 77 77 76 79 81 84 86 88 91 93 95 99 99 97 95 91 87 84 83 82 80 78 76 74 73 70 69 67 65 61 59 56 55 55 56 55 54 53 51 51 54 55 54 54 53 52 56 55 56 60 53 48 52 52 50 46 41 37 32 29 28 27 27 28 32 33 31 34 38 40 39 35 38
56 56 55 54 54 54 55 55 56 57 58 60 62 65 68 71 71 71 73 75 76 79 82 86 90 94 98 100 99 97 93 90 87 85 83 80 78 77 76 74 72 71 68 64 62 60 57 57 59 58 57 55 54 52 53 54 53 52 52 50 50 54 53 56 60 54 51 55 55 52 48 43 37 31 31 30 28 28 28 32 36 34 33 37 40 41 40 41
54 53 52 51 51 50 50 51 51 52 53 54 56 58 61 64 65 64 64 66 68 71 76 81 87 91 97 101 100 98 95 92 91 89 85 81 79 78 77 77 75 72 68 66 65 62 60 61 62 61 59 57 55 53 53 53 52 50 49 48 50 53 53 59 60 52 52 56 55 52 48 45 40 34 34 34 30 28 29 34 36 33 30 30 31 36 41 43
52 51 50 49 48 47 47 47 47 47 48 49 51 53 55 57 57 56 57 58 61 66 70 75 82 88 96 100 99 99 97 93 93 91 87 84 82 79 79 79 76 72 70 70 67 65 63 61 62 62 60 58 57 55 53 53 51 48 47 48 52 53 54 59 56 50 52 57 56 53 48 47 44 38 37 37 34 31 32 36 35 29 24 22 26 32 39 44
48 47 46 45 44 44 43 43 43 43 43 44 46 48 48 50 51 50 51 51 54 62 66 70 78 86 94 99 99 99 96 92 93 93 89 87 85 83 81 79 76 74 73 73 69 65 62 60 61 62 61 60 58 54 52 53 51 46 47 50 52 52 54 57 53 50 53 57 57 53 50 50 46 42 40 40 38 34 33 36 35 28 23 23 28 33 38 42
43 42 41 40 40 39 38 38 38 38 38 39 40 42 43 46 47 46 47 46 50 58 63 67 76 84 93 97 96 96 96 96 96 93 91 89 88 85 82 79 77 76 75 73 68 64 64 62 60 62 63 60 57 53 53 55 51 47 50 53 52 52 54 55 53 51 53 56 55 52 51 51 47 44 43 41 39 37 36 37 37 33 31 31 31 30 31 37
38 36 35 34 33 33 32 32 33 33 34 35 36 38 39 41 43 43 44 45 49 55 59 65 73 81 90 93 92 95 98 99 96 93 93 93 90 87 83 79 78 78 76 73 70 68 67 63 61 63 63 60 57 54 55 55 51 50 53 53 52 53 54 55 54 52 52 54 53 51 50 50 49 46 44 42 40 40 41 41 41 39 38 36 32 27 25 32
36 34 32 31 29 28 27 27 28 29 30 32 33 35 36 38 40 41 43 46 51 54 56 62 70 78 85 89 91 95 98 97 96 96 96 95 92 88 85 82 81 79 76 74 73 70 67 64 63 63 62 61 59 57 58 55 52 53 54 53 54 55 54 54 53 50 50 53 53 51 50 51 51 49 45 43 44 45 44 43 43 42 39 34 29 27 27 31
35 32 31 29 27 25 24 23 24 25 27 29 30 31 33 35 37 39 44 49 53 55 56 61 68 75 81 85 89 94 96 97 98 96 95 96 95 91 88 85 83 80 77 74 73 70 66 65 63 62 63 63 61 60 59 55 54 56 54 54 56 55 54 54 50 47 49 51 51 50 51 52 50 48 46 46 48 48 46 46 45 44 41 36 33 34 35 38
32 30 28 27 25 23 21 20 20 21 22 25 27 28 30 32 35 40 45 50 53 55 56 61 66 72 77 82 86 90 94 97 97 94 93 95 95 92 88 84 80 78 75 71 69 69 66 65 65 63 63 63 61 60 58 55 55 56 53 53 54 52 52 52 47 45 48 50 50 50 50 49 47 48 50 49 50 51 50 48 47 47 46 43 43 45 47 50
30 28 26 25 23 22 20 18 17 16 18 21 24 26 27 30 35 39 43 48 51 53 56 60 64 68 73 79 83 87 92 95 95 93 93 94 93 91 88 84 80 76 71 69 71 72 68 68 69 65 61 61 61 60 56 53 54 54 51 51 51 49 50 49 45 45 49 51 51 50 49 47 47 50 52 50 50 52 53 52 51 51 50 49 49 50 52 55
29 28 26 24 23 21 19 17 15 13 14 18 21 24 26 28 32 37 41 44 46 48 53 58 61 65 69 73 78 84 88 91 92 92 94 95 94 92 89 85 82 78 75 74 74 72 70 71 69 60 56 59 61 59 55 53 56 55 51 51 51 49 49 49 47 47 50 52 52 50 48 47 49 53 53 51 52 53 54 54 52 51 51 51 52 52 52 54
30 28 26 24 22 19 16 15 13 12 12 15 19 22 24 26 29 33 37 39 41 44 51 55 57 61 65 70 75 80 84 86 89 91 94 93 92 90 86 83 80 79 79 78 74 73 71 69 64 55 54 59 62 61 58 56 59 57 52 51 51 50 50 50 50 50 52 53 52 49 46 47 51 53 53 52 51 51 54 55 53 51 50 51 52 52 53 54
30 28 25 22 19 16 13 11 11 10 10 13 17 20 23 25 27 30 33 35 37 41 47 52 55 57 62 68 73 77 80 84 87 90 92 91 89 86 84 81 80 80 80 77 74 73 71 67 63 57 57 60 61 62 59 58 59 56 49 49 50 51 52 51 52 52 53 53 51 47 46 49 52 52 52 51 48 49 54 55 54 52 51 52 54 53 53 53
30 27 23 20 17 14 10 8 7 7 7 10 14 18 22 25 27 29 31 33 35 37 43 50 53 56 59 65 70 73 78 83 86 89 90 89 88 87 85 83 82 81 79 76 74 73 71 67 64 60 60 61 62 63 61 58 58 52 47 49 52 53 52 51 50 52 53 52 49 47 47 48 52 51 51 49 45 48 54 54 54 54 53 53 55 54 53 53
29 25 22 19 16 13 8 5 2 2 4 7 10 14 18 21 24 26 28 31 32 34 39 47 52 55 58 62 66 70 75 80 83 86 87 87 88 87 85 83 82 81 79 76 74 73 72 69 65 63 63 62 63 65 61 57 56 51 48 52 53 51 50 49 48 49 51 50 49 48 47 49 52 50 46 46 46 48 53 54 54 55 55 55 55 55 54 54
28 24 21 18 15 12 8 4 1 3 4 6 8 10 14 18 20 22 25 29 31 34 38 45 51 55 57 61 65 68 72 75 78 82 84 84 85 86 85 82 80 80 79 75 74 74 72 70 67 64 63 62 64 65 59 55 55 53 50 52 51 49 48 48 47 48 50 50 50 50 48 49 52 47 43 47 49 49 52 54 54 54 55 55 56 55 54 54
27 24 21 17 14 11 9 6 3 4 7 9 10 10 12 16 19 21 24 27 31 35 38 43 49 54 56 59 62 65 68 71 75 79 80 81 84 85 84 82 80 79 78 76 77 75 72 70 67 64 64 62 61 60 57 55 56 52 49 50 49 47 47 48 48 48 49 49 48 50 50 49 49 48 47 49 50 51 53 55 54 52 52 54 54 54 54 53
26 23 20 17 14 12 10 8 7 5 7 10 12 13 14 16 19 21 24 28 32 35 38 42 47 51 53 53 55 60 64 69 75 78 79 82 84 84 83 81 80 79 78 77 78 75 72 70 66 63 62 58 56 59 59 57 56 53 50 50 48 47 48 48 47 46 46 46 47 49 50 50 50 51 53 51 51 53 54 54 53 49 48 51 53 53 54 53
25 21 18 16 14 13 12 11 10 9 8 9 12 14 16 18 21 23 26 30 33 35 37 40 44 48 49 48 50 55 61 68 74 77 79 82 83 81 80 80 79 79 77 76 76 74 72 69 64 62 60 56 57 62 61 57 56 55 53 51 48 48 49 47 45 45 45 45 46 48 50 52 53 54 55 53 52 54 53 52 52 49 47 49 51 53 51 49
23 20 18 16 15 14 13 13 13 12 12 12 12 13 15 18 21 23 26 29 31 33 35 38 42 47 48 48 50 53 58 65 72 75 78 80 79 79 80 80 80 79 77 76 75 73 71 68 64 62 61 59 61 64 62 59 57 56 54 51 48 49 49 46 46 46 45 45 47 48 49 51 52 54 55 53 53 54 53 52 52 49 46 47 50 51 50 48
22 19 17 16 16 15 15 15 16 15 15 15 15 15 16 17 19 22 25 28 30 31 33 36 40 44 49 52 53 54 58 64 69 73 75 77 77 78 79 79 78 77 76 75 73 71 68 66 64 62 60 59 62 65 62 58 56 54 53 50 49 50 50 48 48 48 46 46 48 49 48 49 51 54 55 54 54 55 55 53 51 49 47 48 50 50 49 49
21 17 15 15 16 16 16 17 17 17 17 17 17 17 17 19 20 21 23 26 28 29 31 33 37 41 47 51 53 56 60 64 67 70 73 74 76 77 78 78 76 75 75 74 71 69 66 64 61 59 57 57 60 59 55 53 53 54 51 49 49 51 49 48 49 48 45 46 48 49 48 48 51 53 55 56 56 55 54 52 50 47 47 49 49 46 46 47
20 15 13 14 15 16 17 18 18 19 19 19 19 19 19 20 21 22 23 24 26 27 29 31 36 41 47 50 52 55 58 62 65 69 71 73 75 77 78 76 75 75 75 73 70 67 64 62 59 56 55 58 59 57 53 52 53 53 50 48 49 50 48 47 47 46 45 45 46 47 47 47 50 52 54 57 57 54 52 51 50 48 47 48 47 44 42 43
19 15 13 13 15 16 17 19 20 21 21 20 20 20 20 21 22 23 23 24 25 26 28 31 35 41 46 49 51 52 55 58 62 66 69 72 75 76 75 73 73 74 74 71 68 64 62 61 57 56 58 61 60 59 57 56 55 53 50 49 50 50 47 46 46 46 46 45 45 47 47 46 48 51 52 54 56 54 50 50 52 50 47 46 45 44 42 43
20 16 12 11 13 16 18 19 19 21 22 22 21 21 21 22 22 23 24 24 25 26 29 32 35 40 45 49 50 51 52 53 56 60 65 69 71 72 72 71 72 72 69 66 63 61 60 57 55 57 60 61 61 60 59 57 55 52 50 50 50 48 45 45 46 47 46 44 45 48 46 45 47 49 50 52 53 50 47 51 56 54 50 48 47 47 47 47
21 18 14 10 11 14 17 19 19 20 22 23 22 21 22 22 22 23 23 24 24 25 27 30 34 39 44 48 50 49 48 47 48 52 57 61 63 64 66 68 69 68 65 62 60 59 58 57 56 58 59 60 62 61 58 57 54 51 49 49 48 46 46 47 47 46 45 43 44 46 45 45 47 48 50 51 50 48 48 53 59 58 53 51 50 50 52 54
23 20 16 12 9 12 16 17 17 19 21 22 23 22 21 22 22 23 23 24 25 25 26 28 32 38 43 46 48 46 45 45 46 48 51 54 55 58 63 65 64 63 61 59 58 58 58 57 58 60 60 61 61 57 54 54 53 51 50 50 49 47 48 49 47 45 44 43 44 46 45 46 47 47 48 48 47 48 50 52 55 56 52 48 47 48 50 53
22 21 18 14 10 11 14 15 15 18 20 21 22 22 21 21 22 22 23 24 25 26 27 29 32 37 41 43 45 44 43 44 46 48 50 52 54 58 63 64 61 58 56 55 56 57 58 57 58 60 59 59 57 54 54 55 54 53 52 51 49 47 47 47 46 45 45 44 44 46 47 48 48 47 47 48 48 49 51 52 52 53 51 47 44 45 48 52
20 20 18 16 13 11 14 14 13 15 18 19 21 22 22 21 21 21 22 23 26 28 29 32 35 38 41 42 42 43 42 41 43 47 50 53 57 61 63 60 57 55 54 53 55 57 57 56 58 59 59 59 58 57 57 57 54 51 51 49 47 45 46 46 46 46 46 45 46 47 47 47 48 47 46 49 49 47 49 53 54 53 52 52 49 47 49 53
Wind_Direction
274 273 271 270 268 267 265 264 262 261 260 261 262 262 263 263 263 262 260 258 257 256 256 256 255 255 254 253 252 251 250 249 248 246 245 244 242 241 241 240 239 239 239 238 237 237 237 237 237 237 238 239 239 239 240 240 241 241 241 241 240 240 240 241 241 241 242 242 244 242 240 244 246 249 250 249 250 251 251 251 253 254 254 257 259 258 259 259
273 271 270 269 268 267 266 265 264 262 261 260 260 260 260 261 261 261 260 258 256 255 255 255 254 254 254 253 252 251 250 249 248 247 246 245 242 241 241 240 240 239 239 238 237 237 237 237 237 237 238 238 239 240 240 240 241 242 242 241 240 241 241 241 241 242 242 241 243 243 241 245 248 249 249 249 249 250 252 252 253 254 255 257 258 258 258 260
272 270 268 267 266 265 264 264 263 262 262 260 259 258 258 258 259 259 259 258 256 255 254 254 254 253 253 252 252 252 251 249 248 247 248 247 244 242 243 241 240 240 240 238 237 237 237 237 237 237 238 238 239 239 240 240 241 242 242 242 241 241 241 241 242 242 242 241 245 245 242 244 246 247 247 246 249 250 252 253 253 253 255 257 258 259 258 259
271 269 268 266 265 264 263 262 261 261 261 260 259 258 257 256 256 256 256 256 255 255 255 255 254 253 253 252 251 251 251 249 247 247 248 248 246 244 244 242 240 240 240 238 237 237 237 237 237 237 237 237 238 239 240 239 240 242 241 241 241 241 241 242 242 242 243 243 245 245 241 242 245 246 246 245 249 251 251 252 253 252 254 257 257 258 258 257
271 270 268 266 265 264 262 261 260 260 259 259 258 257 257 256 255 254 253 253 253 253 254 255 255 254 253 252 251 250 250 250 248 248 248 248 247 245 245 243 241 240 240 238 238 237 237 236 236 236 236 237 237 237 239 239 239 241 241 240 240 241 241 242 243 243 244 244 245 245 242 242 244 246 246 246 247 249 250 251 253 253 252 255 257 258 258 258
272 270 269 267 265 264 263 261 260 259 258 257 257 256 256 255 255 254 252 251 250 250 252 253 254 254 253 252 251 250 249 249 248 248 247 246 245 244 244 244 241 240 240 239 238 237 237 236 236 236 236 236 236 236 238 238 237 239 240 240 241 241 242 242 243 244 244 245 244 244 243 242 244 246 247 247 246 248 250 252 254 253 250 254 258 257 259 262
272 271 269 268 266 265 263 262 261 259 258 257 256 255 254 254 253 253 253 251 249 249 249 251 252 253 253 252 251 249 249 249 247 247 247 246 244 243 244 244 243 241 241 240 239 238 237 236 235 235 235 236 236 235 236 237 236 238 240 240 241 241 242 243 244 243 244 245 244 244 244 243 245 246 246 246 246 248 250 252 254 253 251 254 256 256 260 263
273 271 269 268 266 265 264 262 261 260 258 257 256 255 254 253 252 252 251 251 250 249 248 249 250 251 252 252 251 249 249 248 244 244 247 247 245 244 243 244 244 243 242 241 239 238 237 236 235 235 235 235 235 235 235 236 235 237 239 240 240 241 241 242 244 242 243 245 244 244 244 244 245 246 246 247 247 249 250 251 253 254 253 254 256 258 260 261
273 271 269 268 266 265 263 262 261 260 258 257 256 255 254 253 252 251 250 250 250 249 248 248 248 249 249 250 250 250 249 247 243 243 246 247 246 244 243 243 243 243 242 241 240 239 239 237 236 235 235 235 235 235 235 235 235 236 238 239 239 240 241 242 244 242 242 244 244 244 244 244 245 245 246 248 248 249 250 250 252 254 253 254 258 259 259 261
272 270 269 267 266 264 263 262 260 259 258 257 256 255 254 253 252 251 250 249 248 248 248 247 247 247 247 247 248 249 249 248 244 242 245 245 246 245 243 242 242 242 242 241 241 240 239 238 236 235 234 234 234 234 234 235 235 235 237 239 239 240 242 242 242 242 241 243 244 243 243 243 244 244 245 247 247 248 249 250 252 253 253 255 257 258 258 261
272 269 268 266 265 263 262 260 259 258 257 257 256 255 254 253 252 251 250 249 247 247 246 246 246 246 246 245 245 247 249 249 245 243 244 244 244 244 242 242 241 241 241 241 241 240 239 238 237 236 235 234 234 234 234 234 235 235 236 238 239 239 241 240 240 241 240 241 243 242 242 242 243 244 244 245 245 247 249 250 251 252 252 252 253 255 256 256
272 269 266 264 263 262 260 259 257 256 256 255 255 254 253 252 251 250 249 248 247 246 245 245 245 244 244 244 244 245 246 247 245 242 243 242 241 241 241 240 240 239 239 240 240 240 240 239 238 237 236 235 234 233 234 233 234 235 235 237 238 237 239 240 239 240 240 241 241 241 241 241 243 242 242 243 244 247 248 248 249 248 247 249 250 251 251 250
273 269 266 263 261 260 258 257 256 254 253 253 253 253 252 252 251 250 248 247 246 245 244 244 244 243 243 243 242 243 244 244 243 241 240 241 240 240 240 240 240 239 239 239 239 240 240 240 239 238 237 236 235 234 233 233 234 235 234 236 238 237 238 239 239 239 239 240 240 240 240 240 240 239 240 242 243 245 246 246 247 245 243 247 248 247 247 243
274 271 268 265 261 259 257 255 254 253 252 251 250 250 251 251 250 249 248 247 246 244 243 243 243 243 241 241 241 242 241 240 240 241 241 241 240 240 239 239 239 240 239 238 238 239 239 239 239 239 238 237 236 234 233 232 233 234 233 235 237 237 236 237 238 237 237 238 239 238 237 237 238 238 239 241 240 240 242 244 244 244 243 243 244 245 245 241
275 273 270 266 263 260 258 256 254 252 251 250 249 248 248 248 248 248 247 246 245 244 243 242 241 242 241 239 239 240 239 238 239 240 240 239 238 238 238 237 237 238 238 238 238 238 239 239 240 239 239 237 236 234 232 231 232 233 233 233 236 236 234 235 236 235 235 236 237 237 235 236 236 237 239 238 238 238 239 240 238 243 248 246 245 246 246 240
277 274 272 269 265 262 260 258 256 254 252 251 250 248 247 246 246 246 246 245 244 243 242 241 240 240 239 238 239 239 238 237 237 238 238 238 238 237 237 237 236 237 237 238 238 238 238 239 239 239 239 237 237 235 232 231 231 232 232 232 233 234 232 234 234 233 234 235 236 235 234 236 235 236 237 236 238 239 238 235 227 233 249 257 256 250 247 236
278 276 273 271 268 265 262 259 258 256 255 253 251 250 248 247 246 245 245 244 243 242 241 240 239 238 237 236 237 238 236 235 234 236 236 236 237 237 237 237 236 236 236 237 238 238 238 238 239 239 239 237 237 236 233 232 232 231 231 230 231 232 230 232 232 231 233 234 233 234 234 235 234 234 234 233 237 236 232 226 212 208 227 248 251 241 238 229
280 277 275 272 269 267 264 261 259 257 256 255 253 252 250 249 247 246 245 244 243 241 240 239 238 237 235 234 235 235 234 232 232 234 234 235 236 237 237 237 236 236 236 236 237 237 237 237 238 238 238 238 238 238 235 234 233 231 230 229 229 230 229 231 231 228 231 232 230 233 235 234 230 230 228 225 230 230 224 215 194 181 201 224 231 229 225 223
282 279 276 274 271 268 266 263 261 259 257 256 255 253 252 250 248 246 245 243 242 241 239 238 236 235 233 232 232 233 233 232 232 233 234 234 235 237 237 237 236 236 235 235 236 237 237 236 236 238 239 240 240 238 234 232 232 230 229 228 228 228 228 230 230 225 228 230 228 232 236 230 224 227 225 222 224 220 214 209 193 181 198 219 225 226 223 217
284 281 278 275 272 270 267 265 263 261 259 257 255 254 252 250 248 247 245 243 241 240 238 237 236 234 232 231 231 232 232 230 230 231 232 232 233 234 235 236 236 236 236 236 236 235 236 235 235 237 239 238 237 235 231 231 231 230 229 228 228 227 227 230 229 224 227 230 228 231 234 226 221 224 222 221 220 214 207 202 191 181 193 215 221 223 221 216
285 282 279 276 273 271 269 266 264 262 260 258 256 254 252 250 248 246 245 243 241 239 237 236 234 233 232 231 230 231 231 230 228 228 229 229 230 231 232 234 235 235 235 235 235 234 234 234 234 235 236 235 235 232 230 230 231 230 229 228 227 227 227 228 229 224 226 230 228 231 233 224 219 222 219 218 218 212 200 187 180 183 197 213 219 220 221 223
288 284 281 278 275 272 270 267 265 263 261 258 256 254 251 250 248 246 244 242 240 238 236 234 233 232 232 230 229 230 230 229 228 228 229 229 230 231 231 233 234 235 235 235 235 235 234 234 233 233 234 234 234 232 231 230 230 229 228 227 227 228 227 228 229 225 225 231 229 230 232 225 219 219 218 217 214 210 198 182 181 196 207 212 217 218 220 228
290 286 283 280 277 274 271 268 265 263 261 258 256 254 252 250 249 246 244 241 239 236 234 233 231 230 230 230 229 229 228 227 227 228 228 229 229 230 231 232 233 234 235 235 235 236 233 232 232 232 232 232 233 233 232 231 230 229 229 228 227 229 228 229 230 224 224 229 229 228 229 226 220 216 219 218 213 212 204 192 191 201 210 214 217 215 213 224
292 289 286 283 280 276 272 269 266 263 260 257 254 252 250 250 248 246 243 240 238 236 233 231 230 228 228 229 228 227 226 225 226 226 227 227 228 229 229 231 232 233 234 235 235 234 231 229 229 229 230 230 231 232 232 232 232 230 230 227 227 229 227 229 227 221 223 227 228 227 227 227 220 211 216 217 212 212 206 199 197 198 208 216 217 216 215 221
294 292 289 286 282 278 274 270 266 262 259 256 253 251 249 248 247 245 242 240 237 235 232 229 228 227 227 228 227 226 226 224 224 225 225 225 226 227 228 229 230 231 232 233 233 233 231 228 228 228 228 228 229 230 232 233 231 230 229 227 227 227 226 228 225 219 224 228 227 226 225 226 221 209 213 214 209 209 201 197 197 195 205 217 221 225 227 230
297 295 292 288 284 281 277 273 269 265 261 257 254 251 249 248 247 245 241 238 234 233 230 227 226 225 225 226 226 225 225 224 224 224 224 224 224 225 226 227 229 229 230 231 231 231 230 229 228 228 228 228 227 228 230 232 231 228 227 226 227 226 227 229 224 219 225 227 226 225 223 225 221 212 212 212 208 204 196 194 192 188 202 228 240 243 244 243
299 296 293 289 286 282 278 275 271 267 263 259 254 251 249 247 245 242 239 234 230 229 227 224 223 222 223 224 224 223 223 223 224 224 223 223 224 224 225 226 227 228 229 230 230 230 231 230 229 228 228 228 228 228 229 232 231 227 225 226 226 226 228 229 224 219 225 227 225 224 223 224 222 214 212 212 209 202 196 195 191 187 199 224 238 245 250 250
300 297 293 290 286 283 279 275 271 267 263 258 254 250 247 244 242 238 235 230 225 225 222 219 219 219 221 222 222 221 221 222 222 222 222 223 223 223 224 224 226 227 228 229 230 230 230 230 229 228 227 228 228 228 229 232 230 225 224 225 225 225 228 228 223 220 224 228 226 223 223 224 222 217 213 212 210 203 199 195 189 189 195 205 217 230 246 255
305 302 298 293 288 284 280 275 269 265 260 255 250 246 242 239 237 233 230 225 222 221 217 215 216 216 218 220 219 219 220 221 221 220 220 221 222 222 222 223 224 226 227 227 227 228 229 229 229 228 226 226 227 226 227 231 229 225 225 225 224 224 226 227 222 219 223 227 225 222 223 223 223 220 214 212 210 205 201 194 190 190 191 195 204 213 231 253
313 310 306 300 295 288 282 275 268 263 258 253 248 243 238 234 231 227 224 221 218 216 213 212 213 213 215 216 216 217 218 219 220 219 219 219 220 220 221 221 222 224 225 225 226 226 227 228 228 228 225 224 224 224 225 228 228 227 225 224 224 223 224 226 223 219 223 226 224 222 222 222 222 221 216 211 210 209 206 203 201 201 199 198 202 209 220 237
316 313 310 305 300 293 285 277 268 261 255 251 246 241 235 230 226 222 219 217 215 212 208 208 210 211 212 213 213 214 216 217 218 218 219 219 219 219 219 219 221 222 223 223 225 226 227 228 229 228 226 224 224 224 225 226 227 228 226 225 226 225 225 227 223 219 222 226 225 223 222 222 222 221 217 212 211 212 211 210 210 211 208 201 199 207 213 218
319 316 313 309 305 298 291 281 269 259 251 247 244 239 232 226 221 218 216 215 214 210 205 205 208 208 209 210 210 212 213 215 216 216 217 219 219 219 219 219 221 222 223 223 225 227 228 230 231 229 227 224 224 225 225 225 228 229 227 227 228 227 227 228 223 219 223 226 226 223 223 222 221 222 219 213 211 211 210 211 211 213 211 204 203 208 212 217
327 324 321 316 311 304 297 288 273 259 248 241 238 235 231 224 219 217 216 215 213 208 204 204 206 206 207 207 208 209 210 212 213 214 215 217 218 219 219 218 219 220 221 222 224 226 226 227 229 228 227 224 223 226 226 226 231 232 230 229 230 229 229 228 223 219 223 226 225 223 222 220 220 222 221 215 213 212 211 212 214 217 216 211 212 217 221 226
336 333 329 323 315 308 301 292 279 264 248 236 229 227 225 221 218 217 216 216 213 207 204 205 205 204 205 205 206 207 208 210 210 211 213 215 215 217 217 218 217 217 217 218 220 223 224 227 229 228 229 227 224 225 225 225 229 231 229 229 229 227 227 226 222 219 222 225 224 222 221 219 219 221 220 216 214 214 213 215 217 221 222 216 215 221 226 229
342 339 333 325 317 310 302 293 282 266 247 229 220 218 218 216 216 216 216 215 212 207 204 204 204 203 202 203 205 206 207 208 208 209 211 213 214 215 216 217 218 218 218 218 218 220 222 226 228 227 228 227 223 224 223 222 227 228 227 227 228 227 226 224 221 219 221 224 224 221 219 221 221 221 221 217 216 216 216 217 219 221 224 220 219 224 224 224
346 342 336 328 320 314 306 295 280 262 240 221 211 207 208 209 209 212 213 212 210 206 203 202 202 202 201 202 204 204 204 205 206 208 210 211 211 213 215 216 216 218 219 219 219 221 222 224 225 224 225 225 222 223 223 222 227 229 227 227 228 227 226 224 222 221 221 223 224 220 218 222 224 222 222 218 216 220 219 217 218 220 221 221 221 224 222 219
349 346 343 337 330 324 316 301 281 261 236 216 206 202 203 205 204 205 206 206 205 204 202 200 200 199 200 201 202 202 202 203 204 206 208 209 209 210 212 213 215 216 218 218 219 221 222 223 223 222 223 223 220 221 222 221 226 229 227 227 228 227 226 224 223 223 223 224 224 221 218 222 226 224 223 220 217 222 223 217 217 219 220 221 222 223 223 223
351 351 352 349 342 337 330 315 290 249 226 210 202 201 203 204 203 201 200 200 197 197 199 199 198 198 198 200 201 201 202 202 202 204 206 207 208 209 210 212 214 216 216 216 218 221 222 222 222 220 222 222 219 220 220 220 225 227 224 225 228 228 227 226 224 225 225 224 224 223 219 221 227 224 223 224 221 224 226 220 216 218 219 221 224 223 223 226
355 357 359 358 355 353 350 346 49 132 156 177 184 192 199 201 199 196 194 193 189 189 194 196 196 196 197 198 198 199 200 200 201 203 204 206 207 209 210 211 213 215 216 216 217 219 221 221 221 221 223 222 219 219 219 219 224 226 225 226 228 229 228 227 225 225 225 223 222 224 220 221 227 225 222 227 226 225 227 224 218 219 220 221 225 225 224 227
1 4 5 5 7 9 15 23 52 121 142 151 155 166 187 193 191 187 186 186 184 183 189 194 195 196 196 197 197 196 196 197 199 202 203 204 207 208 210 210 211 214 215 215 217 218 219 220 221 222 224 223 220 219 219 220 223 225 226 229 230 230 229 227 225 225 226 224 223 224 222 221 225 226 223 225 228 227 227 226 220 218 222 223 224 227 226 227
7 10 12 14 18 23 33 47 61 89 126 143 147 152 168 180 180 179 178 178 180 180 185 190 193 194 196 197 196 195 194 193 197 200 201 203 205 207 209 209 211 213 214 215 217 218 218 219 220 222 224 224 220 219 219 219 222 223 224 227 229 229 230 229 227 226 226 225 224 225 224 221 222 225 224 223 227 229 228 228 223 218 222 226 225 226 227 228
10 14 20 26 32 40 48 59 72 85 103 123 136 145 159 169 170 170 172 175 177 179 182 187 189 191 192 193 194 195 193 192 195 197 199 202 204 205 207 209 211 213 214 216 218 218 219 219 219 221 223 221 217 217 218 218 219 220 221 224 225 227 229 230 228 227 226 226 225 226 226 222 220 224 226 222 224 229 229 229 227 220 221 227 226 225 226 227
13 18 26 36 45 54 63 71 80 89 100 112 124 139 153 160 162 165 169 172 175 177 181 184 187 187 186 187 190 192 192 193 194 196 198 200 202 204 206 208 210 212 214 215 217 217 219 219 218 219 221 218 214 215 216 216 218 220 222 223 224 226 227 228 227 226 224 224 225 225 225 224 222 225 228 224 223 229 230 230 229 222 220 227 228 226 225 224
14 23 32 46 57 65 74 82 88 96 104 113 122 133 143 150 155 161 166 169 172 175 178 181 184 185 184 184 186 187 189 192 194 195 197 198 200 202 205 207 210 212 214 216 217 218 218 219 218 219 221 218 214 215 215 216 218 221 224 225 225 227 227 225 225 225 223 223 225 225 223 224 225 225 228 227 225 228 230 231 231 226 222 226 229 228 226 226
14 27 40 56 68 77 85 91 98 103 107 113 119 126 135 141 147 154 160 165 168 172 177 178 179 182 183 184 185 185 187 190 192 194 195 197 198 201 204 206 208 211 214 215 216 217 217 218 219 220 222 219 216 217 218 220 222 224 225 225 227 229 229 227 227 227 224 224 226 226 223 223 225 225 226 228 227 227 230 231 233 230 226 228 229 228 227 228
12 26 48 66 79 88 95 100 104 106 108 113 117 123 131 136 141 147 153 160 164 168 173 174 174 178 182 183 185 187 188 189 191 192 193 195 198 200 202 204 206 209 212 213 215 215 215 217 216 216 218 216 213 214 216 218 221 224 226 226 229 230 229 228 229 229 227 226 228 229 226 224 226 226 226 228 227 226 228 231 233 233 230 228 228 227 228 229
13 22 49 74 88 96 101 104 107 108 110 113 117 122 128 133 137 142 148 154 160 164 168 170 173 177 180 181 183 188 189 189 190 191 192 194 196 199 200 202 205 208 210 211 212 213 213 215 214 213 214 212 210 211 212 214 218 221 222 224 228 230 228 227 228 229 228 226 227 230 228 226 228 228 228 230 229 227 227 229 233 233 231 229 227 225 225 228
16 22 42 71 91 100 102 104 108 111 112 113 116 121 126 130 134 139 145 152 158 164 167 169 172 175 178 179 181 187 191 190 190 190 191 194 196 197 198 200 204 207 208 209 210 211 213 213 212 212 211 209 209 211 212 214 217 219 220 223 228 229 227 227 227 228 229 227 227 230 229 228 229 229 229 231 230 226 226 227 229 230 229 229 229 226 223 222
21 26 35 52 82 101 104 106 110 112 112 113 115 118 123 128 132 137 144 149 155 162 167 169 170 173 176 178 180 186 190 189 189 189 191 194 195 194 197 200 203 205 205 206 207 209 211 210 209 210 208 208 210 211 212 215 218 219 220 223 227 228 226 226 226 227 229 228 229 231 230 230 231 230 230 231 228 225 226 228 229 229 228 227 228 227 226 224
28 31 33 36 59 92 102 106 111 112 113 115 115 116 121 126 131 136 142 148 152 156 163 166 169 172 175 177 179 182 184 183 182 185 189 191 191 191 195 200 202 203 203 202 203 207 209 207 205 206 206 208 211 211 213 217 219 218 218 221 224 225 224 225 225 226 228 228 229 231 231 231 231 230 231 232 228 224 225 228 229 230 229 227 228 230 229 228
34 38 37 35 46 78 94 101 108 110 113 115 115 116 120 124 130 135 141 147 150 152 158 162 166 170 172 175 176 176 179 179 176 178 182 184 184 188 194 198 197 199 200 199 201 204 205 203 202 204 205 208 210 210 212 216 218 218 219 221 224 225 225 226 226 226 227 227 229 232 232 231 231 230 230 231 228 224 225 226 226 227 228 228 231 236 235 231
38 45 46 44 48 68 88 95 100 107 112 116 117 118 119 121 127 131 137 145 148 150 155 160 163 166 168 172 173 171 172 175 174 176 179 179 181 187 193 194 191 193 195 196 199 202 201 199 201 203 206 208 209 209 211 215 218 219 221 223 225 225 225 226 225 226 227 228 230 232 233 233 233 232 232 232 230 226 226 227 225 225 226 226 228 233 236 236
Height
10633 10632 10631 10630 10630 10629 10628 10628 10628 10628 10629 10629 10629 10629 10630 10630 10631 10631 10632 10633 10634 10636 10637 10637 10638 10638 10639 10642 10645 10646 10647 10649 10652 10656 10657 10656 10662 10665 10662 10666 10670 10672 10676 10680 10683 10685 10687 10691 10694 10697 10700 10704 10707 10711 10714 10718 10719 10722 10728 10734 10744 10748 10749 10749 10749 10752 10757 10764 10763 10769 10781 10782 10786 10786 10786 10792 10793 10790 10789 10792 10793 10792 10801 10812 10815 10814 10815 10815
10626 10625 10624 10623 10623 10622 10621 10621 10621 10620 10621 10622 10622 10622 10623 10623 10624 10624 10625 10626 10627 10629 10629 10630 10631 10631 10633 10636 10639 10640 10641 10644 10648 10650 10650 10651 10656 10658 10656 10662 10665 10666 10669 10673 10676 10678 10682 10685 10688 10691 10695 10698 10702 10704 10707 10712 10714 10718 10723 10729 10739 10741 10741 10741 10743 10747 10751 10757 10756 10765 10782 10782 10782 10779 10780 10787 10786 10783 10784 10787 10789 10790 10802 10810 10808 10809 10813 10813
10618 10617 10616 10615 10615 10614 10614 10613 10613 10613 10613 10613 10614 10614 10615 10616 10617 10617 10618 10619 10620 10621 10622 10623 10623 10624 10627 10630 10633 10633 10636 10639 10642 10644 10644 10645 10650 10652 10653 10657 10660 10661 10663 10666 10670 10672 10676 10679 10682 10686 10689 10693 10696 10698 10701 10707 10710 10713 10717 10725 10733 10732 10732 10735 10738 10740 10743 10754 10755 10764 10780 10776 10772 10770 10773 10781 10778 10778 10780 10781 10784 10790 10801 10805 10803 10806 10810 10810
10610 10609 10608 10607 10606 10606 10605 10605 10605 10605 10604 10605 10605 10606 10607 10608 10609 10610 10611 10612 10613 10615 10615 10616 10616 10617 10620 10624 10626 10627 10630 10632 10636 10640 10639 10639 10644 10648 10648 10651 10654 10655 10656 10659 10663 10666 10669 10672 10677 10680 10683 10686 10689 10692 10695 10702 10706 10706 10712 10720 10723 10722 10726 10729 10730 10733 10741 10754 10753 10759 10771 10768 10765 10761 10766 10778 10776 10773 10775 10777 10779 10789 10801 10800 10799 10803 10805 10807
10602 10601 10599 10598 10597 10597 10596 10596 10595 10595 10595 10596 10596 10597 10598 10599 10600 10601 10603 10604 10606 10607 10608 10608 10609 10610 10613 10617 10619 10621 10623 10625 10632 10636 10633 10634 10640 10643 10642 10644 10648 10649 10650 10654 10658 10659 10662 10665 10669 10673 10677 10680 10683 10687 10691 10697 10700 10700 10706 10711 10713 10716 10721 10722 10723 10732 10742 10748 10746 10753 10762 10762 10758 10753 10764 10775 10770 10767 10769 10774 10775 10787 10799 10795 10796 10800 10800 10804
10593 10591 10590 10589 10588 10587 10587 10586 10586 10586 10586 10586 10586 10587 10588 10589 10591 10592 10594 10596 10598 10600 10601 10601 10601 10602 10606 10609 10612 10614 10616 10620 10629 10629 10626 10629 10633 10636 10637 10638 10641 10642 10644 10649 10652 10653 10656 10658 10663 10668 10671 10674 10677 10683 10685 10689 10695 10696 10699 10704 10708 10711 10714 10715 10719 10732 10739 10738 10740 10746 10752 10755 10751 10751 10764 10767 10762 10763 10765 10771 10773 10782 10795 10793 10793 10796 10797 10802
10583 10581 10579 10578 10577 10577 10576 10576 10576 10576 10576 10576 10577 10578 10578 10580 10581 10583 10584 10586 10589 10592 10593 10593 10594 10595 10598 10602 10604 10607 10610 10615 10622 10621 10618 10623 10626 10630 10631 10633 10636 10638 10640 10644 10646 10647 10650 10653 10657 10661 10663 10666 10671 10677 10680 10683 10690 10692 10694 10699 10703 10704 10708 10711 10716 10729 10732 10729 10735 10740 10744 10749 10746 10750 10756 10755 10757 10760 10762 10770 10769 10775 10792 10791 10788 10793 10797 10801
10572 10570 10569 10567 10566 10565 10565 10565 10565 10565 10565 10566 10566 10567 10569 10570 10571 10573 10575 10576 10580 10582 10585 10585 10586 10588 10590 10595 10597 10601 10606 10607 10612 10615 10614 10617 10621 10624 10626 10628 10631 10633 10636 10638 10640 10641 10644 10648 10651 10654 10657 10660 10665 10670 10673 10678 10684 10689 10690 10694 10697 10699 10704 10708 10712 10724 10726 10722 10728 10734 10738 10741 10741 10745 10747 10748 10756 10756 10759 10767 10764 10772 10789 10786 10783 10792 10795 10799
10561 10559 10557 10556 10555 10554 10554 10554 10554 10554 10554 10555 10555 10556 10558 10560 10561 10563 10565 10567 10570 10572 10575 10576 10578 10580 10583 10587 10590 10597 10600 10596 10603 10612 10610 10611 10615 10617 10620 10624 10627 10628 10630 10632 10634 10636 10640 10643 10645 10648 10651 10653 10658 10664 10668 10673 10680 10685 10686 10688 10692 10694 10699 10705 10710 10718 10720 10716 10722 10729 10732 10733 10735 10739 10742 10746 10751 10750 10754 10762 10762 10771 10784 10782 10781 10789 10791 10797
10548 10547 10545 10544 10543 10542 10542 10541 10542 10542 10542 10543 10544 10545 10546 10548 10550 10552 10555 10557 10560 10562 10565 10567 10569 10571 10575 10580 10585 10592 10591 10587 10599 10608 10603 10604 10608 10611 10616 10619 10621 10622 10624 10626 10629 10632 10634 10637 10638 10640 10643 10647 10652 10658 10663 10670 10676 10680 10680 10682 10688 10692 10696 10703 10706 10711 10713 10712 10717 10723 10724 10726 10729 10734 10739 10742 10742 10743 10751 10758 10760 10769 10780 10779 10780 10784 10787 10795
10535 10534 10532 10531 10530 10529 10529 10528 10529 10529 10530 10531 10531 10533 10534 10536 10539 10541 10544 10547 10550 10552 10554 10557 10559 10562 10567 10571 10580 10586 10582 10581 10595 10602 10597 10598 10600 10604 10610 10613 10614 10616 10618 10621 10624 10626 10629 10630 10632 10635 10640 10643 10647 10653 10659 10666 10671 10673 10676 10680 10685 10689 10692 10698 10702 10704 10707 10708 10712 10715 10717 10720 10724 10730 10734 10733 10735 10741 10749 10755 10758 10768 10777 10775 10776 10780 10784 10793
10521 10519 10518 10516 10515 10514 10514 10514 10515 10515 10516 10517 10518 10520 10521 10523 10526 10529 10533 10535 10539 10542 10545 10547 10548 10553 10558 10564 10577 10578 10571 10577 10589 10594 10589 10588 10592 10597 10603 10606 10607 10610 10612 10615 10618 10621 10623 10624 10627 10632 10636 10638 10643 10649 10654 10661 10665 10666 10673 10677 10679 10684 10689 10694 10698 10699 10702 10705 10706 10708 10712 10716 10720 10725 10725 10725 10734 10741 10745 10750 10755 10766 10772 10770 10773 10776 10781 10789
10506 10504 10502 10500 10499 10498 10497 10498 10498 10500 10501 10503 10504 10506 10507 10510 10513 10516 10520 10523 10527 10530 10534 10537 10538 10543 10550 10560 10570 10564 10562 10572 10579 10581 10579 10581 10587 10591 10596 10600 10601 10604 10607 10610 10612 10615 10617 10619 10623 10627 10631 10634 10640 10645 10649 10657 10659 10662 10670 10671 10673 10681 10687 10691 10693 10695 10698 10700 10701 10704 10709 10713 10714 10716 10717 10723 10734 10737 10740 10746 10753 10763 10767 10767 10770 10774 10780 10786
10490 10488 10485 10483 10481 10480 10479 10479 10480 10482 10484 10486 10489 10491 10493 10495 10499 10503 10506 10510 10514 10518 10523 10527 10528 10533 10543 10555 10558 10551 10553 10563 10568 10572 10573 10576 10582 10585 10589 10593 10595 10599 10602 10604 10606 10609 10612 10615 10619 10623 10627 10632 10637 10640 10645 10651 10653 10657 10664 10666 10670 10678 10684 10686 10687 10691 10694 10695 10696 10700 10705 10707 10706 10709 10716 10724 10730 10732 10737 10744 10751 10758 10763 10764 10768 10773 10779 10784
10472 10469 10466 10464 10463 10461 10460 10461 10461 10463 10465 10468 10471 10474 10478 10480 10484 10488 10492 10497 10501 10506 10511 10516 10520 10525 10536 10547 10543 10538 10545 10556 10563 10564 10565 10570 10575 10579 10582 10585 10589 10592 10595 10598 10600 10603 10607 10611 10615 10620 10624 10628 10631 10634 10640 10646 10648 10652 10659 10663 10667 10673 10679 10680 10682 10687 10689 10690 10692 10696 10701 10700 10700 10708 10716 10721 10724 10729 10736 10743 10750 10756 10761 10765 10769 10774 10778 10782
10453 10450 10446 10444 10443 10442 10441 10441 10442 10444 10446 10449 10453 10456 10461 10465 10468 10473 10478 10482 10486 10493 10498 10505 10511 10515 10528 10536 10529 10529 10540 10551 10554 10551 10555 10564 10569 10572 10574 10578 10582 10586 10589 10592 10594 10598 10602 10607 10612 10616 10620 10624 10626 10629 10636 10640 10643 10648 10654 10659 10661 10667 10674 10674 10676 10682 10684 10687 10689 10694 10695 10692 10700 10710 10714 10719 10723 10727 10734 10741 10749 10755 10761 10767 10772 10774 10778 10781
10433 10430 10426 10423 10422 10421 10420 10420 10421 10423 10426 10430 10433 10437 10443 10448 10452 10458 10463 10466 10472 10479 10486 10494 10499 10506 10521 10524 10517 10522 10531 10537 10539 10540 10549 10558 10561 10564 10568 10572 10577 10580 10583 10585 10589 10593 10598 10603 10608 10612 10616 10620 10622 10626 10634 10638 10639 10644 10647 10652 10656 10661 10668 10667 10670 10678 10681 10684 10687 10689 10688 10690 10702 10709 10711 10718 10721 10725 10732 10739 10746 10753 10763 10771 10773 10774 10776 10777
10414 10410 10407 10404 10402 10400 10399 10400 10401 10403 10406 10409 10413 10418 10425 10430 10435 10441 10446 10450 10457 10465 10474 10481 10487 10498 10509 10509 10506 10509 10514 10522 10529 10534 10543 10551 10554 10558 10561 10566 10570 10573 10576 10580 10584 10589 10593 10599 10604 10608 10611 10616 10620 10625 10634 10634 10634 10637 10640 10646 10650 10655 10661 10660 10666 10676 10677 10678 10682 10684 10684 10692 10703 10705 10709 10715 10717 10722 10729 10735 10743 10752 10762 10768 10767 10767 10769 10768
10396 10392 10389 10386 10384 10382 10381 10381 10382 10384 10387 10390 10394 10399 10406 10412 10416 10422 10427 10432 10442 10452 10461 10466 10473 10485 10492 10493 10494 10496 10502 10515 10525 10531 10539 10545 10547 10551 10555 10559 10563 10566 10570 10575 10580 10584 10589 10595 10600 10605 10611 10616 10618 10623 10628 10626 10624 10629 10634 10640 10644 10650 10655 10655 10663 10673 10671 10672 10680 10681 10683 10693 10700 10701 10706 10710 10713 10719 10724 10731 10739 10748 10755 10756 10755 10757 10760 10762
10379 10376 10373 10370 10367 10365 10364 10364 10365 10367 10370 10373 10377 10382 10388 10392 10396 10402 10407 10417 10428 10436 10444 10451 10462 10472 10477 10481 10483 10485 10494 10508 10519 10524 10528 10533 10537 10541 10547 10552 10556 10560 10566 10572 10576 10579 10583 10590 10599 10604 10608 10611 10613 10617 10620 10617 10618 10624 10629 10635 10640 10645 10649 10651 10659 10667 10666 10670 10678 10678 10681 10691 10697 10699 10703 10706 10710 10716 10721 10727 10734 10740 10743 10744 10746 10750 10755 10757
10364 10360 10357 10354 10352 10350 10349 10350 10350 10351 10354 10357 10361 10366 10370 10372 10375 10383 10390 10402 10413 10419 10429 10439 10449 10458 10462 10469 10474 10477 10486 10500 10509 10511 10515 10522 10526 10532 10540 10545 10550 10556 10562 10567 10569 10572 10579 10589 10597 10600 10601 10604 10606 10609 10611 10612 10614 10620 10624 10630 10635 10639 10645 10648 10653 10661 10665 10669 10674 10675 10679 10689 10694 10696 10700 10704 10707 10712 10718 10724 10729 10731 10731 10733 10738 10743 10747 10748
10349 10345 10342 10339 10337 10336 10335 10335 10336 10337 10339 10342 10346 10350 10353 10353 10358 10368 10376 10386 10395 10404 10415 10424 10435 10445 10449 10457 10463 10468 10480 10493 10500 10502 10507 10514 10519 10528 10536 10539 10545 10552 10556 10558 10564 10570 10579 10588 10592 10592 10594 10598 10600 10603 10606 10608 10610 10615 10620 10626 10632 10635 10641 10644 10647 10658 10666 10666 10669 10672 10677 10685 10689 10693 10698 10701 10704 10709 10715 10719 10724 10726 10726 10727 10729 10734 10737 10738
10335 10331 10328 10326 10324 10323 10322 10322 10323 10324 10326 10329 10332 10335 10338 10338 10344 10354 10361 10369 10378 10389 10400 10410 10423 10432 10435 10444 10453 10460 10472 10484 10490 10495 10500 10507 10516 10524 10529 10534 10541 10545 10548 10555 10563 10569 10577 10583 10583 10585 10588 10591 10595 10599 10602 10602 10605 10612 10617 10624 10630 10631 10637 10641 10644 10657 10662 10660 10663 10668 10673 10680 10685 10692 10696 10698 10702 10706 10711 10715 10719 10726 10728 10726 10726 10729 10733 10734
10323 10319 10317 10314 10313 10312 10310 10310 10311 10312 10314 10316 10318 10321 10324 10326 10330 10339 10346 10355 10365 10376 10388 10399 10409 10418 10425 10431 10440 10450 10462 10473 10479 10483 10491 10501 10509 10515 10521 10529 10533 10537 10545 10552 10558 10563 10570 10573 10573 10577 10581 10586 10591 10594 10597 10599 10604 10611 10616 10623 10625 10627 10634 10634 10638 10652 10655 10653 10657 10663 10671 10677 10683 10691 10692 10694 10699 10702 10706 10710 10714 10721 10724 10724 10725 10728 10731 10732
10312 10308 10306 10304 10302 10300 10299 10299 10299 10301 10303 10304 10306 10309 10311 10314 10318 10326 10335 10344 10356 10365 10375 10386 10395 10408 10412 10413 10428 10443 10452 10461 10467 10472 10483 10493 10500 10507 10515 10519 10523 10532 10541 10545 10550 10556 10562 10564 10566 10571 10576 10581 10586 10590 10593 10596 10602 10608 10614 10620 10619 10622 10627 10625 10634 10650 10649 10647 10654 10660 10668 10673 10679 10686 10688 10690 10695 10698 10703 10706 10709 10715 10719 10721 10724 10726 10729 10730
10303 10299 10296 10293 10291 10290 10289 10289 10289 10291 10293 10294 10297 10299 10302 10305 10309 10318 10325 10335 10346 10353 10361 10374 10384 10395 10397 10402 10419 10430 10438 10452 10460 10466 10477 10485 10491 10498 10504 10510 10519 10529 10534 10537 10542 10548 10554 10559 10562 10567 10572 10576 10580 10586 10590 10592 10598 10606 10612 10614 10613 10619 10621 10621 10635 10646 10642 10642 10649 10656 10665 10668 10673 10680 10684 10687 10691 10695 10699 10702 10707 10711 10716 10720 10721 10722 10724 10727
10295 10291 10287 10285 10282 10281 10280 10280 10281 10282 10283 10286 10288 10290 10294 10297 10301 10309 10316 10325 10336 10340 10348 10361 10371 10379 10383 10389 10402 10415 10434 10449 10450 10456 10469 10476 10482 10488 10495 10504 10514 10521 10525 10528 10535 10545 10551 10555 10558 10562 10567 10571 10576 10584 10588 10589 10595 10604 10607 10607 10609 10615 10616 10619 10633 10639 10635 10637 10644 10654 10661 10663 10668 10676 10680 10683 10687 10692 10696 10699 10702 10706 10712 10719 10720 10721 10722 10724
10287 10283 10280 10277 10275 10274 10273 10273 10273 10274 10275 10277 10279 10282 10286 10289 10293 10301 10308 10317 10324 10326 10335 10347 10354 10363 10367 10373 10392 10413 10427 10428 10431 10447 10461 10465 10472 10480 10489 10500 10508 10513 10517 10524 10535 10543 10546 10549 10554 10557 10561 10567 10574 10582 10584 10584 10592 10600 10600 10601 10606 10611 10612 10617 10626 10631 10630 10632 10642 10651 10656 10659 10666 10672 10676 10679 10684 10689 10692 10696 10698 10702 10708 10714 10717 10721 10723 10723
10280 10277 10274 10271 10269 10267 10267 10266 10266 10267 10268 10269 10271 10274 10277 10281 10286 10293 10299 10307 10311 10315 10325 10335 10342 10350 10356 10367 10389 10403 10406 10411 10425 10441 10446 10452 10462 10472 10483 10493 10499 10503 10509 10520 10529 10533 10537 10544 10549 10550 10556 10564 10571 10577 10578 10580 10589 10593 10593 10597 10603 10605 10607 10612 10620 10626 10627 10629 10639 10648 10652 10658 10662 10667 10674 10678 10681 10685 10688 10692 10694 10697 10701 10706 10712 10716 10721 10723
10274 10271 10268 10265 10263 10262 10261 10260 10260 10261 10261 10262 10264 10267 10270 10274 10279 10285 10291 10296 10300 10305 10316 10325 10331 10338 10345 10359 10376 10385 10394 10409 10419 10426 10433 10443 10454 10464 10474 10481 10487 10494 10504 10513 10519 10525 10533 10539 10542 10545 10553 10560 10565 10569 10572 10577 10585 10586 10589 10595 10597 10600 10604 10608 10616 10623 10624 10626 10636 10644 10649 10653 10656 10662 10670 10674 10676 10678 10682 10686 10688 10690 10693 10698 10704 10709 10716 10720
10269 10266 10263 10260 10258 10257 10255 10255 10255 10256 10256 10257 10259 10261 10265 10269 10274 10278 10282 10285 10289 10295 10306 10315 10319 10327 10337 10350 10363 10373 10387 10397 10402 10414 10428 10436 10443 10453 10462 10471 10479 10488 10497 10506 10514 10523 10531 10534 10538 10544 10549 10554 10560 10563 10568 10575 10579 10580 10587 10591 10592 10598 10602 10605 10614 10621 10623 10627 10635 10641 10644 10648 10653 10659 10664 10667 10670 10672 10676 10679 10681 10683 10686 10691 10698 10703 10710 10714
10264 10261 10259 10256 10253 10252 10251 10251 10251 10251 10253 10253 10255 10257 10260 10264 10268 10271 10273 10277 10282 10290 10300 10306 10311 10320 10330 10341 10352 10364 10376 10383 10393 10412 10423 10429 10439 10450 10460 10471 10481 10489 10499 10510 10517 10522 10528 10532 10535 10539 10543 10550 10557 10559 10565 10573 10575 10577 10585 10588 10591 10597 10601 10604 10614 10620 10623 10626 10631 10635 10639 10645 10652 10654 10655 10660 10664 10667 10671 10674 10676 10678 10681 10687 10693 10696 10700 10703
10261 10257 10255 10252 10250 10249 10247 10247 10247 10248 10249 10250 10252 10254 10257 10260 10263 10266 10269 10273 10278 10286 10295 10300 10306 10315 10324 10333 10344 10354 10363 10372 10388 10406 10414 10423 10435 10446 10457 10468 10476 10486 10499 10507 10510 10513 10520 10522 10523 10532 10541 10548 10553 10556 10564 10573 10573 10576 10584 10586 10590 10596 10600 10605 10613 10617 10619 10620 10624 10630 10635 10642 10647 10647 10650 10656 10659 10662 10666 10670 10673 10674 10677 10684 10687 10689 10693 10694
10258 10254 10252 10249 10247 10246 10245 10244 10244 10245 10246 10247 10249 10251 10254 10258 10260 10263 10267 10270 10277 10286 10293 10298 10304 10312 10321 10331 10340 10347 10356 10368 10383 10397 10404 10413 10425 10437 10449 10460 10469 10480 10487 10492 10497 10504 10512 10514 10521 10536 10543 10546 10551 10555 10563 10569 10567 10571 10579 10582 10586 10592 10597 10602 10608 10612 10613 10615 10619 10625 10632 10638 10641 10641 10645 10650 10654 10658 10662 10666 10670 10671 10674 10680 10685 10687 10688 10688
10256 10252 10250 10247 10245 10244 10243 10242 10242 10242 10243 10245 10247 10249 10252 10255 10258 10262 10266 10271 10278 10285 10291 10297 10303 10310 10319 10328 10335 10342 10354 10367 10379 10389 10396 10408 10423 10436 10449 10460 10470 10475 10478 10484 10493 10499 10506 10514 10525 10537 10538 10539 10546 10550 10556 10560 10559 10565 10574 10577 10582 10589 10593 10597 10602 10605 10607 10609 10615 10622 10630 10633 10634 10637 10641 10646 10651 10655 10658 10661 10665 10668 10671 10677 10681 10681 10681 10681
10255 10251 10248 10246 10244 10242 10241 10240 10240 10240 10241 10243 10244 10247 10249 10253 10256 10260 10265 10271 10277 10283 10289 10295 10302 10309 10316 10322 10328 10338 10350 10361 10372 10382 10392 10406 10422 10435 10447 10456 10463 10467 10472 10484 10493 10496 10504 10512 10521 10529 10530 10533 10541 10545 10550 10555 10556 10562 10572 10577 10581 10584 10587 10592 10596 10600 10603 10607 10613 10621 10627 10627 10629 10633 10637 10643 10650 10652 10652 10656 10661 10665 10668 10672 10674 10673 10674 10676
10254 10251 10248 10245 10243 10242 10240 10240 10240 10240 10240 10241 10243 10245 10247 10250 10254 10258 10263 10269 10275 10282 10289 10294 10300 10306 10312 10318 10325 10335 10345 10354 10365 10376 10388 10403 10416 10427 10437 10446 10454 10460 10469 10481 10489 10493 10501 10508 10515 10522 10524 10527 10535 10539 10544 10551 10553 10562 10572 10574 10574 10577 10582 10588 10593 10596 10600 10605 10611 10617 10622 10624 10625 10629 10634 10641 10646 10645 10645 10651 10657 10660 10663 10666 10668 10669 10671 10673
10254 10251 10248 10246 10244 10242 10241 10240 10239 10240 10240 10242 10243 10245 10248 10251 10254 10258 10263 10268 10275 10282 10288 10292 10298 10303 10309 10316 10324 10333 10341 10351 10362 10374 10386 10399 10412 10422 10432 10442 10449 10455 10464 10476 10482 10486 10494 10501 10508 10514 10516 10522 10529 10532 10540 10549 10553 10561 10567 10566 10569 10575 10580 10585 10590 10594 10598 10604 10608 10612 10618 10621 10621 10626 10633 10637 10639 10640 10641 10646 10651 10654 10657 10660 10662 10665 10668 10669
10255 10252 10249 10247 10245 10243 10242 10241 10240 10239 10240 10242 10244 10247 10249 10252 10256 10260 10264 10269 10274 10280 10286 10291 10296 10301 10307 10313 10320 10330 10340 10353 10365 10374 10385 10399 10410 10420 10428 10438 10446 10451 10461 10472 10476 10480 10488 10496 10503 10510 10513 10518 10523 10529 10541 10548 10551 10557 10561 10562 10567 10573 10577 10582 10588 10591 10594 10599 10604 10607 10613 10617 10618 10624 10630 10630 10632 10634 10635 10640 10646 10649 10653 10655 10657 10661 10664 10664
10257 10253 10250 10248 10247 10245 10244 10242 10242 10241 10241 10242 10245 10248 10251 10254 10258 10261 10265 10270 10274 10279 10284 10290 10295 10301 10306 10311 10319 10328 10339 10352 10364 10374 10387 10399 10407 10415 10424 10434 10442 10448 10458 10465 10468 10475 10484 10491 10500 10506 10509 10515 10524 10533 10542 10545 10547 10554 10558 10561 10565 10570 10574 10578 10583 10586 10590 10595 10600 10602 10608 10613 10616 10620 10623 10623 10626 10628 10630 10633 10640 10646 10651 10652 10654 10657 10659 10660
10259 10256 10253 10251 10249 10247 10246 10244 10244 10244 10244 10245 10245 10248 10252 10256 10259 10263 10267 10271 10275 10279 10284 10290 10296 10302 10308 10316 10324 10331 10340 10350 10359 10370 10383 10392 10399 10409 10421 10431 10437 10443 10452 10459 10463 10472 10480 10488 10498 10504 10508 10518 10528 10532 10535 10539 10543 10549 10554 10557 10562 10567 10570 10574 10579 10584 10588 10592 10596 10598 10603 10608 10610 10611 10614 10618 10621 10623 10624 10628 10635 10644 10648 10648 10650 10653 10655 10657
10263 10259 10257 10254 10252 10250 10249 10247 10247 10247 10248 10249 10249 10251 10254 10257 10260 10264 10268 10271 10275 10280 10285 10290 10297 10303 10311 10320 10328 10334 10341 10347 10355 10366 10377 10385 10396 10409 10421 10429 10435 10441 10450 10455 10461 10470 10478 10486 10497 10503 10507 10516 10522 10523 10528 10534 10539 10543 10547 10552 10558 10563 10566 10571 10577 10580 10584 10587 10591 10593 10597 10600 10603 10605 10608 10614 10617 10617 10620 10625 10630 10639 10643 10643 10645 10648 10652 10655
10266 10263 10260 10257 10255 10253 10252 10251 10251 10251 10252 10253 10254 10256 10258 10260 10263 10266 10269 10273 10277 10282 10286 10292 10297 10303 10311 10320 10328 10336 10343 10348 10355 10364 10373 10383 10395 10408 10416 10423 10430 10437 10444 10450 10457 10467 10474 10483 10494 10499 10502 10508 10513 10516 10522 10528 10533 10538 10544 10550 10555 10559 10562 10568 10572 10574 10578 10582 10584 10587 10592 10595 10600 10603 10604 10610 10614 10613 10617 10621 10624 10632 10640 10640 10639 10643 10648 10651
10269 10266 10263 10261 10259 10257 10256 10256 10255 10256 10256 10257 10259 10261 10263 10265 10268 10270 10273 10277 10280 10285 10289 10293 10299 10305 10312 10318 10325 10333 10342 10349 10355 10363 10372 10383 10394 10403 10411 10419 10427 10435 10442 10449 10457 10465 10474 10482 10491 10496 10498 10504 10508 10512 10519 10527 10533 10538 10543 10549 10552 10554 10558 10563 10565 10568 10574 10578 10579 10583 10588 10591 10594 10597 10600 10605 10608 10610 10613 10616 10620 10628 10635 10634 10633 10639 10645 10648
10273 10270 10267 10265 10263 10262 10261 10261 10261 10261 10261 10262 10263 10265 10267 10269 10272 10275 10278 10280 10284 10288 10292 10296 10302 10308 10313 10318 10324 10330 10336 10344 10353 10361 10371 10382 10391 10400 10407 10415 10425 10433 10439 10446 10455 10464 10473 10481 10489 10495 10499 10505 10511 10517 10525 10531 10534 10537 10542 10546 10548 10550 10555 10559 10561 10566 10572 10575 10576 10578 10583 10587 10588 10592 10595 10598 10602 10606 10610 10614 10618 10625 10629 10629 10631 10637 10642 10645
10278 10275 10272 10270 10268 10267 10266 10265 10265 10265 10266 10267 10268 10269 10271 10273 10275 10278 10282 10285 10288 10292 10296 10299 10304 10309 10314 10320 10326 10331 10335 10343 10351 10360 10369 10379 10387 10395 10402 10412 10423 10428 10433 10442 10451 10461 10471 10478 10487 10494 10497 10502 10509 10516 10523 10527 10529 10534 10540 10543 10544 10547 10552 10556 10560 10565 10569 10571 10573 10574 10579 10583 10585 10588 10591 10593 10597 10603 10608 10611 10615 10619 10622 10625 10629 10635 10639 10641
10284 10280 10277 10275 10273 10272 10271 10270 10270 10270 10271 10271 10272 10274 10276 10277 10279 10282 10285 10288 10292 10295 10299 10302 10306 10310 10316 10322 10329 10334 10339 10344 10351 10359 10368 10376 10383 10391 10401 10412 10419 10423 10430 10441 10451 10461 10469 10476 10484 10489 10491 10496 10503 10509 10514 10518 10524 10530 10535 10538 10540 10543 10548 10553 10558 10561 10563 10567 10570 10570 10574 10579 10581 10584 10587 10589 10593 10599 10606 10610 10611 10613 10618 10622 10627 10632 10635 10636
10289 10286 10283 10280 10278 10277 10276 10275 10275 10275 10275 10276 10277 10278 10280 10282 10284 10286 10288 10292 10295 10298 10301 10304 10308 10313 10319 10324 10331 10336 10341 10347 10353 10361 10369 10375 10382 10391 10402 10409 10414 10421 10432 10443 10452 10461 10468 10475 10480 10483 10487 10493 10499 10504 10509 10514 10519 10525 10530 10533 10536 10540 10546 10550 10554 10556 10559 10564 10566 10566 10570 10575 10576 10579 10582 10584 10589 10597 10603 10603 10602 10605 10612 10617 10621 10627 10630 10632
10294 10291 10289 10286 10284 10282 10281 10281 10281 10280 10280 10281 10282 10283 10285 10286 10288 10290 10292 10295 10299 10302 10305 10308 10312 10317 10322 10326 10332 10338 10345 10353 10359 10366 10372 10378 10386 10397 10404 10409 10415 10423 10434 10443 10452 10459 10464 10470 10475 10479 10485 10490 10493 10499 10506 10511 10516 10522 10527 10530 10533 10538 10543 10546 10549 10553 10556 10560 10562 10562 10567 10570 10571 10575 10578 10580 10587 10594 10595 10593 10592 10597 10603 10608 10613 10620 10624 10628
10299 10297 10295 10293 10291 10288 10287 10287 10286 10286 10286 10286 10287 10288 10289 10291 10292 10294 10296 10299 10302 10306 10309 10313 10316 10320 10324 10329 10334 10341 10348 10353 10360 10368 10375 10382 10391 10400 10405 10409 10417 10426 10434 10442 10451 10455 10459 10466 10471 10475 10481 10485 10490 10500 10506 10510 10514 10519 10523 10525 10529 10534 10538 10541 10546 10550 10553 10556 10557 10558 10562 10565 10566 10571 10575 10577 10583 10587 10586 10587 10590 10593 10597 10602 10607 10613 10618 10621
10304 10302 10300 10299 10297 10295 10293 10293 10293 10292 10292 10292 10292 10293 10294 10295 10297 10298 10300 10302 10305 10308 10312 10316 10321 10325 10329 10334 10339 10345 10352 10356 10361 10367 10374 10382 10391 10398 10401 10407 10417 10427 10435 10443 10448 10451 10456 10463 10468 10472 10478 10484 10490 10498 10502 10505 10509 10514 10518 10522 10526 10531 10535 10539 10544 10546 10549 10552 10553 10554 10557 10559 10561 10567 10570 10572 10575 10579 10581 10584 10587 10590 10594 10599 10603 10607 10611 10614
10308 10306 10304 10303 10303 10301 10300 10300 10299 10298 10298 10297 10297 10297 10298 10300 10301 10303 10304 10306 10308 10310 10314 10319 10323 10328 10334 10340 10345 10350 10357 10364 10368 10371 10375 10381 10388 10392 10397 10407 10417 10426 10433 10440 10444 10447 10453 10461 10466 10470 10476 10481 10486 10492 10496 10500 10506 10512 10517 10521 10525 10529 10533 10536 10540 10543 10545 10548 10549 10550 10552 10554 10557 10563 10566 10567 10571 10576 10579 10581 10584 10588 10592 10596 10600 10603 10605 10607